International Virtual Aviation Organisation

Russian Federation and Kazakhstan MCD

 

Карточка аэропорта UUDL

Внимание!
Информация на этой странице в стадии наполнения.
Если вы не увидели какой-то информации, или заметили неточность - пожалуйста сообщите нам!
Спасибо!
Команда RU-STAFF
Название аэропортаТуношна
Название аэропорта (англ.)Tunoshna
Превышение305 ft. (93 m.)
Координаты57°33.636', 40°9.438'
Высота перехода700 m
Эшелон переходаFL050
Коды ответчика2750-2757
Зона ОрВДМосква РПИ (UUWV)
Данные METARUUDL 091430Z 02004MPS CAVOK 22/12 Q1015 R23/////// NOSIG RMK QFE753
Проноз погоды (TAF)UUDL 091400Z 0915/1015 36003MPS 9999 BKN040 TX24/1012Z TN13/1001Z
NOTAMshow/hide NOTAM
AWOS   TABLE

Информация о ВПП

ВПП Длина ВПП (м.) Покрытие Курс ВПП Частота ILS
053010Асфальтобетон51 
233010Асфальтобетон231110.5

Диспетчерские позиции




Спутниковое изображение